TimeMST,TemperatureF,Dew PointF,Humidity,Sea Level PressureIn,VisibilityMPH,Wind Direction,Wind SpeedMPH,Gust SpeedMPH,PrecipitationIn,Events,Conditions,WindDirDegrees,DateUTC
12:15 AM,12.2,3.2,67,30.12,10.0,NNW,6.9,-,N/A,,Clear,340,2012-03-03 07:15:00
12:35 AM,10.4,3.2,73,30.13,10.0,NNW,6.9,-,N/A,,Clear,340,2012-03-03 07:35:00
12:55 AM,12.2,5.0,73,30.13,10.0,North,5.8,-,N/A,,Clear,360,2012-03-03 07:55:00
1:15 AM,12.2,3.2,67,30.13,10.0,NNW,8.1,-,N/A,,Clear,340,2012-03-03 08:15:00
1:35 AM,12.2,3.2,67,30.14,10.0,NW,5.8,-,N/A,,Clear,320,2012-03-03 08:35:00
1:55 AM,10.4,1.4,67,30.14,10.0,NW,4.6,-,N/A,,Clear,320,2012-03-03 08:55:00
2:15 AM,8.6,-0.4,67,30.14,10.0,NW,4.6,-,N/A,,Clear,310,2012-03-03 09:15:00
2:35 AM,8.6,-0.4,67,30.14,10.0,Calm,Calm,-,N/A,,Clear,0,2012-03-03 09:35:00
2:55 AM,8.6,-0.4,67,30.14,10.0,Calm,Calm,-,N/A,,Clear,0,2012-03-03 09:55:00
3:15 AM,6.8,-2.2,67,30.14,10.0,NNE,8.1,-,N/A,,Clear,20,2012-03-03 10:15:00
3:35 AM,6.8,-0.4,72,30.16,10.0,SW,6.9,-,N/A,,Clear,220,2012-03-03 10:35:00
3:55 AM,6.8,-2.2,67,30.16,10.0,WSW,4.6,-,N/A,,Clear,240,2012-03-03 10:55:00
4:15 AM,6.8,-2.2,67,30.16,10.0,Calm,Calm,-,N/A,,Clear,0,2012-03-03 11:15:00
4:35 AM,6.8,-7.6,52,30.16,10.0,West,3.5,-,N/A,,Clear,280,2012-03-03 11:35:00
4:55 AM,6.8,-0.4,72,30.18,10.0,Calm,Calm,-,N/A,,Clear,0,2012-03-03 11:55:00
5:15 AM,6.8,-2.2,67,30.18,10.0,East,8.1,-,N/A,,Clear,90,2012-03-03 12:15:00
5:55 AM,6.8,1.4,79,30.19,10.0,ENE,5.8,-,N/A,,Clear,70,2012-03-03 12:55:00
6:15 AM,6.8,-0.4,72,30.19,10.0,Calm,Calm,-,N/A,,Clear,0,2012-03-03 13:15:00
6:35 AM,3.2,-5.8,66,30.19,10.0,NNW,6.9,-,N/A,,Clear,340,2012-03-03 13:35:00
6:55 AM,3.2,-2.2,78,30.20,10.0,North,6.9,-,N/A,,Clear,360,2012-03-03 13:55:00
7:15 AM,6.8,-0.4,72,30.21,10.0,North,5.8,-,N/A,,Clear,10,2012-03-03 14:15:00
7:35 AM,10.4,1.4,67,30.22,10.0,NNE,6.9,-,N/A,,Clear,20,2012-03-03 14:35:00
7:55 AM,14.0,3.2,62,30.23,10.0,Calm,Calm,-,N/A,,Clear,0,2012-03-03 14:55:00
8:15 AM,15.8,1.4,53,30.24,10.0,Calm,Calm,-,N/A,,Clear,0,2012-03-03 15:15:00
8:35 AM,17.6,3.2,53,30.25,10.0,Calm,Calm,-,N/A,,Clear,0,2012-03-03 15:35:00
8:55 AM,17.6,5.0,58,30.25,10.0,NNW,3.5,-,N/A,,Clear,340,2012-03-03 15:55:00
9:15 AM,19.4,3.2,49,30.26,10.0,Calm,Calm,-,N/A,,Clear,0,2012-03-03 16:15:00
9:35 AM,23.0,1.4,39,30.26,10.0,WNW,5.8,-,N/A,,Clear,290,2012-03-03 16:35:00
9:55 AM,24.8,3.2,40,30.26,10.0,West,4.6,-,N/A,,Clear,280,2012-03-03 16:55:00
10:15 AM,26.6,3.2,37,30.26,10.0,West,9.2,-,N/A,,Clear,280,2012-03-03 17:15:00
10:35 AM,26.6,3.2,37,30.26,10.0,NNW,6.9,-,N/A,,Clear,340,2012-03-03 17:35:00
10:55 AM,26.6,3.2,37,30.26,10.0,WNW,9.2,-,N/A,,Clear,300,2012-03-03 17:55:00
11:15 AM,28.4,3.2,34,30.26,10.0,NNE,8.1,-,N/A,,Clear,30,2012-03-03 18:15:00
11:35 AM,28.4,3.2,34,30.25,10.0,SW,4.6,-,N/A,,Clear,220,2012-03-03 18:35:00
11:55 AM,28.4,5.0,37,30.25,10.0,South,5.8,-,N/A,,Clear,190,2012-03-03 18:55:00
12:15 PM,30.2,6.8,37,30.24,10.0,West,3.5,-,N/A,,Clear,270,2012-03-03 19:15:00
12:35 PM,30.2,6.8,37,30.23,10.0,SW,5.8,-,N/A,,Clear,220,2012-03-03 19:35:00
12:55 PM,30.2,6.8,37,30.23,10.0,SSW,4.6,-,N/A,,Clear,210,2012-03-03 19:55:00
1:15 PM,32.0,6.8,35,30.22,10.0,WSW,8.1,-,N/A,,Clear,250,2012-03-03 20:15:00
1:35 PM,33.8,8.6,35,30.22,10.0,WSW,9.2,-,N/A,,Clear,250,2012-03-03 20:35:00
1:55 PM,33.8,8.6,35,30.22,10.0,WSW,8.1,-,N/A,,Clear,250,2012-03-03 20:55:00
2:15 PM,35.6,8.6,33,30.22,10.0,West,8.1,-,N/A,,Clear,260,2012-03-03 21:15:00
2:35 PM,35.6,8.6,33,30.21,10.0,WNW,6.9,-,N/A,,Clear,300,2012-03-03 21:35:00
2:55 PM,35.6,10.4,35,30.22,10.0,West,9.2,-,N/A,,Clear,270,2012-03-03 21:55:00
3:15 PM,37.4,10.4,33,30.21,10.0,WSW,4.6,-,N/A,,Clear,240,2012-03-03 22:15:00
3:35 PM,37.4,8.6,30,30.21,10.0,NW,3.5,-,N/A,,Clear,310,2012-03-03 22:35:00
3:55 PM,35.6,8.6,33,30.21,10.0,Calm,Calm,-,N/A,,Clear,0,2012-03-03 22:55:00
4:15 PM,37.4,10.4,33,30.22,10.0,WSW,6.9,-,N/A,,Clear,250,2012-03-03 23:15:00
4:35 PM,37.4,10.4,33,30.22,10.0,WSW,6.9,-,N/A,,Clear,250,2012-03-03 23:35:00
4:55 PM,37.4,10.4,33,30.23,10.0,WSW,9.2,-,N/A,,Clear,250,2012-03-03 23:55:00
5:15 PM,37.4,10.4,33,30.23,10.0,West,10.4,-,N/A,,Clear,270,2012-03-04 00:15:00
5:35 PM,35.6,10.4,35,30.23,10.0,West,8.1,-,N/A,,Clear,260,2012-03-04 00:35:00
5:55 PM,33.8,10.4,38,30.24,10.0,West,6.9,-,N/A,,Clear,260,2012-03-04 00:55:00
6:15 PM,30.2,10.4,44,30.25,10.0,WSW,4.6,-,N/A,,Clear,250,2012-03-04 01:15:00
6:35 PM,28.4,8.6,43,30.25,10.0,WNW,4.6,-,N/A,,Clear,290,2012-03-04 01:35:00
6:55 PM,28.4,8.6,43,30.26,10.0,West,4.6,-,N/A,,Clear,270,2012-03-04 01:55:00
7:15 PM,28.4,8.6,43,30.27,10.0,NW,3.5,-,N/A,,Clear,310,2012-03-04 02:15:00
7:35 PM,26.6,8.6,47,30.28,10.0,Calm,Calm,-,N/A,,Clear,0,2012-03-04 02:35:00
7:55 PM,24.8,10.4,54,30.28,10.0,ENE,4.6,-,N/A,,Clear,70,2012-03-04 02:55:00
8:15 PM,24.8,12.2,59,30.29,10.0,ENE,4.6,-,N/A,,Clear,60,2012-03-04 03:15:00
8:35 PM,23.0,10.4,59,30.29,10.0,Calm,Calm,-,N/A,,Clear,0,2012-03-04 03:35:00
8:55 PM,24.8,10.4,54,30.29,10.0,West,3.5,-,N/A,,Clear,270,2012-03-04 03:55:00
9:15 PM,19.4,8.6,63,30.30,10.0,NW,5.8,-,N/A,,Clear,310,2012-03-04 04:15:00
9:35 PM,23.0,10.4,59,30.30,10.0,NNW,4.6,-,N/A,,Clear,330,2012-03-04 04:35:00
9:55 PM,21.2,8.6,58,30.30,10.0,NE,6.9,-,N/A,,Clear,50,2012-03-04 04:55:00
10:15 PM,21.2,10.4,63,30.31,10.0,NE,8.1,-,N/A,,Clear,40,2012-03-04 05:15:00
10:35 PM,19.4,10.4,68,30.31,10.0,NE,6.9,-,N/A,,Clear,40,2012-03-04 05:35:00
10:55 PM,19.4,10.4,68,30.31,10.0,North,4.6,-,N/A,,Clear,10,2012-03-04 05:55:00
11:15 PM,21.2,12.2,68,30.31,10.0,NW,4.6,-,N/A,,Clear,320,2012-03-04 06:15:00
11:35 PM,17.6,10.4,73,30.30,10.0,NNW,5.8,-,N/A,,Clear,340,2012-03-04 06:35:00
11:55 PM,15.8,10.4,79,30.30,10.0,North,3.5,-,N/A,,Clear,360,2012-03-04 06:55:00